Date Time,Air Temp,Sky Temp,Clarity,Light Level,Rain Sensor,Readings
2014-06-25 00:00:05,26.0,-0.3,26.3,0.0,2.3,113
2014-06-25 00:05:05,26.0,-0.3,26.3,0.0,2.3,112
2014-06-25 00:10:05,25.5,-0.7,26.2,0.0,2.3,111
2014-06-25 00:15:05,26.0,-0.5,26.5,0.0,2.3,112
2014-06-25 00:20:05,25.9,0.1,25.8,0.0,2.3,112
2014-06-25 00:25:05,25.9,0.9,25.0,0.0,2.3,111
2014-06-25 00:30:05,25.9,2.4,23.5,0.0,2.3,111
2014-06-25 00:35:05,25.4,2.1,23.3,0.0,2.3,111
2014-06-25 00:40:05,25.8,2.6,23.2,0.0,2.3,111
2014-06-25 00:45:05,25.8,3.0,22.8,0.0,2.3,111
2014-06-25 00:50:05,25.6,3.2,22.5,0.0,2.3,112
2014-06-25 00:55:05,25.6,3.3,22.3,0.0,2.3,111
2014-06-25 01:00:05,25.7,4.2,21.5,0.0,2.3,112
2014-06-25 01:05:05,25.7,4.6,21.1,0.0,2.3,112
2014-06-25 01:10:05,25.7,4.4,21.2,0.0,2.3,112
2014-06-25 01:15:05,23.6,7.9,15.7,0.0,2.2,112
2014-06-25 01:20:05,21.9,9.1,12.9,0.0,2.3,111
2014-06-25 01:25:05,21.4,8.8,12.5,0.0,2.3,112
2014-06-25 01:30:05,21.1,9.5,11.6,0.0,2.3,111
2014-06-25 01:35:05,21.0,9.1,11.9,0.0,2.2,112
2014-06-25 01:40:05,20.9,9.6,11.3,0.0,2.2,111
2014-06-25 01:45:05,20.9,10.2,10.7,0.0,2.2,111
2014-06-25 01:50:05,20.9,10.5,10.4,0.0,2.3,112
2014-06-25 01:55:05,21.0,11.0,10.0,0.0,2.3,112
2014-06-25 02:00:05,21.1,10.4,10.7,0.0,2.2,112
2014-06-25 02:05:05,21.1,11.0,10.1,0.0,2.2,111
2014-06-25 02:10:05,21.1,11.3,9.8,0.0,2.2,111
2014-06-25 02:15:05,21.2,11.7,9.5,0.0,2.2,112
2014-06-25 02:20:05,21.3,11.8,9.4,0.0,2.2,111
2014-06-25 02:25:05,21.3,11.7,9.7,0.0,2.2,111
2014-06-25 02:30:05,21.3,11.5,9.8,0.0,2.2,112
2014-06-25 02:35:05,21.2,11.0,10.2,0.0,2.2,111
2014-06-25 02:40:05,21.2,11.1,10.0,0.0,2.3,111
2014-06-25 02:45:05,21.1,11.5,9.6,0.0,2.3,111
2014-06-25 02:50:05,21.1,11.2,9.9,0.0,2.3,112
2014-06-25 02:55:05,21.1,11.0,10.1,0.0,2.3,111
2014-06-25 03:00:05,21.2,11.1,10.1,0.0,2.3,111
2014-06-25 03:05:05,21.2,11.4,9.9,0.0,2.3,111
2014-06-25 03:10:05,21.3,11.3,9.9,0.0,2.3,112
2014-06-25 03:15:05,21.3,11.6,9.7,0.0,2.3,111
2014-06-25 03:20:05,21.3,11.3,9.9,0.0,2.3,112
2014-06-25 03:25:05,21.2,11.2,10.0,0.0,2.3,111
2014-06-25 03:30:05,21.1,10.9,10.2,0.1,2.3,111
2014-06-25 03:35:05,21.0,10.6,10.4,0.3,2.3,112
2014-06-25 03:40:05,20.9,10.6,10.3,0.5,2.3,111
2014-06-25 03:45:05,20.8,8.9,12.0,0.7,2.3,112
2014-06-25 03:50:05,20.6,2.1,18.5,1.2,2.4,111
2014-06-25 03:55:05,22.0,-2.0,24.0,1.7,2.3,111
2014-06-25 04:00:05,23.8,-3.5,27.3,2.7,2.3,112
2014-06-25 04:05:05,24.1,-2.7,26.8,4.3,2.3,112
2014-06-25 04:10:05,24.1,-4.1,28.2,6.4,2.3,112
2014-06-25 04:15:05,24.1,-4.6,28.7,9.6,2.3,112
2014-06-25 04:20:05,24.0,-4.9,28.9,13.4,2.3,111
2014-06-25 04:25:05,23.9,-5.0,28.9,17.7,2.3,111
2014-06-25 04:30:05,23.9,-3.6,27.5,21.6,2.3,112
2014-06-25 04:35:05,23.8,-1.1,24.8,24.7,2.2,112
2014-06-25 04:40:05,22.1,5.4,16.7,26.8,2.3,112
2014-06-25 04:45:05,20.1,5.1,15.0,28.3,2.3,111
2014-06-25 04:50:05,20.1,-0.6,20.7,29.5,2.3,112
2014-06-25 04:55:05,22.5,-5.9,28.3,30.4,2.4,111
2014-06-25 05:00:05,23.0,-6.4,29.4,30.9,2.4,112
2014-06-25 05:05:05,23.1,-6.7,29.8,31.2,2.3,112
2014-06-25 05:10:05,23.0,-6.7,29.7,31.5,2.4,112
2014-06-25 05:15:05,22.9,-6.8,29.8,31.7,2.5,112
2014-06-25 05:20:05,23.0,-6.8,29.8,31.8,2.5,112
2014-06-25 05:25:05,23.0,-6.7,29.7,31.9,2.5,112
2014-06-25 05:30:05,23.2,-6.6,29.7,31.9,2.3,111
2014-06-25 05:35:05,23.3,-6.6,29.9,32.0,2.3,112
2014-06-25 05:40:05,23.4,-6.9,30.3,32.0,2.3,112
2014-06-25 05:45:05,23.6,-6.7,30.3,32.1,2.3,112
2014-06-25 05:50:05,23.8,-5.5,29.3,32.1,2.3,112
2014-06-25 05:55:05,23.9,-4.1,28.0,32.2,2.2,112
2014-06-25 06:00:05,24.0,-2.5,26.5,32.2,2.3,111
2014-06-25 06:05:02,24.1,-0.6,24.7,32.3,2.3,69
2014-06-25 06:10:02,24.4,-0.3,24.6,32.3,2.3,112
2014-06-25 06:15:02,24.6,-1.1,25.6,32.3,2.3,112
2014-06-25 06:20:02,24.7,-4.2,28.9,32.3,2.3,112
2014-06-25 06:25:02,24.8,-5.4,30.2,32.2,2.3,111
2014-06-25 06:30:02,24.9,-4.9,29.8,32.3,2.3,112
2014-06-25 06:35:02,25.1,-5.1,30.2,32.3,2.3,111
2014-06-25 06:40:02,25.3,-5.7,31.0,32.2,2.3,111
2014-06-25 06:45:02,25.4,-6.3,31.7,32.2,2.3,113
2014-06-25 06:50:02,25.4,-6.3,31.7,32.2,2.3,111
2014-06-25 06:55:02,25.4,-6.6,31.9,32.3,2.3,112
2014-06-25 07:00:02,25.3,-6.6,31.9,32.3,2.3,111
2014-06-25 07:05:02,25.3,-6.8,32.1,32.3,2.3,112
2014-06-25 07:10:02,25.5,-6.6,32.0,32.3,2.3,112
2014-06-25 07:15:02,25.7,-6.7,32.4,32.3,2.3,112
2014-06-25 07:20:02,25.8,-7.0,32.8,32.3,2.3,111
2014-06-25 07:25:02,25.7,-6.5,32.2,32.3,2.3,112
2014-06-25 07:30:02,25.9,-6.7,32.6,32.3,2.1,112
2014-06-25 07:35:02,26.0,-6.2,32.2,32.3,2.1,112
2014-06-25 07:40:02,26.2,-6.0,32.2,32.3,2.3,111
2014-06-25 07:45:02,26.4,-6.1,32.5,32.3,2.3,112
2014-06-25 07:50:02,26.3,-6.0,32.3,32.3,2.3,112
2014-06-25 07:55:02,26.4,-5.8,32.2,32.3,2.3,112
2014-06-25 08:00:02,26.6,-5.9,32.6,32.3,2.3,111
2014-06-25 08:05:02,26.6,-6.0,32.6,32.3,2.3,112
2014-06-25 08:10:02,26.4,-5.5,31.9,32.3,2.3,111
2014-06-25 08:15:02,26.3,-5.3,31.6,32.3,2.3,112
2014-06-25 08:20:02,26.3,-5.5,31.7,32.3,2.3,111
2014-06-25 08:25:02,26.3,-5.2,31.4,32.4,2.3,112
2014-06-25 08:30:02,26.2,-6.1,32.3,32.3,2.3,111
2014-06-25 08:35:02,26.2,-6.1,32.3,32.4,2.3,112
2014-06-25 08:40:02,26.4,-5.8,32.2,32.3,2.3,111
2014-06-25 08:45:02,26.8,-5.6,32.4,32.3,2.4,112
2014-06-25 08:50:02,26.8,-5.5,32.4,32.4,2.4,111
2014-06-25 08:55:02,26.8,-5.5,32.3,32.4,2.4,112
2014-06-25 09:00:02,26.8,-5.6,32.4,32.4,2.4,112
2014-06-25 09:05:02,26.9,-3.4,30.3,32.4,2.4,111
2014-06-25 09:10:02,27.4,-3.3,30.6,32.4,2.3,112
2014-06-25 09:15:02,28.0,-4.2,32.2,32.4,2.3,112
2014-06-25 09:20:02,28.4,-2.6,31.0,32.5,2.3,112
2014-06-25 09:25:02,28.9,-1.2,30.1,32.5,2.3,111
2014-06-25 09:30:02,29.3,-1.5,30.8,32.5,2.3,112
2014-06-25 09:35:02,29.7,1.4,28.3,32.5,2.3,111
2014-06-25 09:40:02,30.3,2.4,27.9,32.5,2.3,111
2014-06-25 09:45:02,30.4,-0.0,30.4,32.5,2.3,112
2014-06-25 09:50:02,30.1,1.4,28.6,32.5,2.3,111
2014-06-25 09:55:02,30.1,1.0,29.1,32.5,2.3,111
2014-06-25 10:00:02,30.2,1.6,28.6,32.5,2.3,111
2014-06-25 10:05:02,30.4,0.4,30.0,32.5,2.3,112
2014-06-25 10:10:02,30.5,-0.8,31.3,32.5,2.3,112
2014-06-25 10:15:02,30.5,-0.4,30.8,32.5,2.3,111
2014-06-25 10:20:02,30.4,-1.0,31.4,32.5,2.3,112
2014-06-25 10:25:02,29.8,0.5,29.3,32.5,2.3,111
2014-06-25 10:30:02,29.4,3.2,26.2,32.5,2.3,112
2014-06-25 10:35:02,29.0,3.3,25.7,32.5,2.3,111
2014-06-25 10:40:02,28.7,6.1,22.7,32.5,2.3,112
2014-06-25 10:45:02,28.7,5.0,23.7,32.5,2.3,111
2014-06-25 10:50:02,28.7,6.4,22.2,32.5,2.3,112
2014-06-25 10:55:02,28.4,9.4,19.1,32.6,2.3,111
2014-06-25 11:00:02,28.2,7.5,20.6,32.6,2.3,112
2014-06-25 11:05:02,29.3,11.0,18.3,32.6,2.4,111
2014-06-25 11:10:02,29.9,5.5,24.4,32.6,2.3,112
2014-06-25 11:15:02,31.2,3.3,27.9,32.5,2.3,111
2014-06-25 11:20:02,31.0,6.5,24.5,32.6,2.3,111
2014-06-25 11:25:02,31.9,8.1,23.8,32.6,2.4,112
2014-06-25 11:30:02,33.3,9.6,23.8,32.6,1.6,111
2014-06-25 11:35:02,34.7,5.2,29.5,32.6,1.4,111
2014-06-25 11:40:02,34.2,3.5,30.7,32.5,1.3,112
2014-06-25 11:45:02,33.2,6.0,27.2,32.6,1.4,111
2014-06-25 11:50:02,34.0,6.9,27.1,32.6,1.2,111
2014-06-25 11:55:02,35.4,7.6,27.7,32.6,1.8,112
2014-06-25 12:00:02,36.9,7.0,29.9,32.6,2.2,111
2014-06-25 12:05:02,37.8,7.5,30.3,32.6,2.5,111
2014-06-25 12:10:02,38.1,6.6,31.5,32.6,2.7,112
2014-06-25 12:15:02,37.6,5.6,32.0,32.6,2.7,112
2014-06-25 12:20:02,37.5,5.6,31.9,32.6,2.7,111
2014-06-25 12:25:02,37.9,4.0,33.8,32.6,2.7,111
2014-06-25 12:30:02,35.9,3.2,32.7,32.6,2.2,112
2014-06-25 12:35:02,34.6,9.0,25.6,32.6,1.9,111
2014-06-25 12:40:02,36.0,7.9,28.2,32.6,2.3,112
2014-06-25 12:45:02,37.6,5.6,32.0,32.6,2.7,112
2014-06-25 12:50:02,37.0,5.2,31.9,32.6,2.6,111
2014-06-25 12:55:02,36.2,9.6,26.6,32.6,2.4,111
2014-06-25 13:00:02,36.8,9.2,27.6,32.6,2.5,112
2014-06-25 13:05:02,38.0,13.2,24.8,32.6,2.6,111
2014-06-25 13:10:02,39.6,6.6,33.0,32.6,2.4,111
2014-06-25 13:15:02,38.6,9.6,29.0,32.6,2.4,112
2014-06-25 13:20:02,39.6,9.9,29.7,32.6,2.4,111
2014-06-25 13:25:02,40.9,10.2,30.7,32.6,2.4,112
2014-06-25 13:30:02,41.2,10.9,30.2,32.6,2.4,111
2014-06-25 13:35:02,41.3,10.1,31.2,32.6,2.4,111
2014-06-25 13:40:02,41.7,8.4,33.3,32.6,2.4,112
2014-06-25 13:45:02,40.9,8.8,32.2,32.6,2.4,111
2014-06-25 13:50:02,40.9,10.2,30.7,32.6,2.4,112
2014-06-25 13:55:02,42.2,10.6,31.7,32.6,2.4,111
2014-06-25 14:00:02,42.9,11.1,31.8,32.6,2.4,112
2014-06-25 14:05:02,42.9,11.5,31.4,32.6,2.3,111
2014-06-25 14:10:02,42.9,12.0,30.9,32.6,2.4,111
2014-06-25 14:15:02,43.1,13.2,29.9,32.6,2.4,112
2014-06-25 14:20:02,43.2,13.1,30.1,32.6,2.4,111
2014-06-25 14:25:02,41.5,9.3,32.2,32.6,2.4,111
2014-06-25 14:30:02,38.0,10.3,27.7,32.6,2.3,112
2014-06-25 14:35:02,36.0,9.9,26.0,32.6,2.4,111
2014-06-25 14:40:02,35.1,11.4,23.6,32.6,2.7,112
2014-06-25 14:45:02,35.2,10.5,24.7,32.5,2.7,111
2014-06-25 14:50:02,34.2,10.3,23.9,32.5,2.3,112
2014-06-25 14:55:02,33.2,9.6,23.6,32.5,2.1,111
2014-06-25 15:00:02,32.9,10.9,22.0,32.6,1.9,112
2014-06-25 15:05:02,32.2,14.0,18.2,32.6,1.8,111
2014-06-25 15:10:02,31.9,12.2,19.6,32.6,2.0,111
2014-06-25 15:15:02,33.7,12.4,21.3,32.6,2.4,112
2014-06-25 15:20:02,35.0,9.4,25.6,32.6,2.5,111
2014-06-25 15:25:02,34.0,11.2,22.8,32.6,2.3,112
2014-06-25 15:30:02,33.2,8.4,24.8,32.5,2.1,111
2014-06-25 15:35:02,31.9,9.3,22.6,32.6,1.7,112
2014-06-25 15:40:02,32.4,8.2,24.1,32.6,1.7,111
2014-06-25 15:45:02,33.5,8.3,25.3,32.6,1.9,112
2014-06-25 15:50:02,34.1,9.2,24.8,32.6,2.0,112
2014-06-25 15:55:02,35.5,9.6,25.9,32.6,2.4,111
2014-06-25 16:00:02,36.0,7.9,28.1,32.6,2.6,111
2014-06-25 16:05:03,36.4,7.5,28.9,32.6,2.7,112
2014-06-25 16:10:03,36.5,7.4,29.1,32.6,2.8,111
2014-06-25 16:15:03,36.4,5.9,30.5,32.6,2.7,111
2014-06-25 16:20:03,35.9,6.1,29.8,32.6,2.7,111
2014-06-25 16:25:03,35.7,5.2,30.5,32.6,2.6,112
2014-06-25 16:30:03,35.1,4.9,30.1,32.6,2.4,112
2014-06-25 16:35:03,35.0,6.6,28.4,32.6,2.4,112
2014-06-25 16:40:03,35.3,6.4,28.8,32.6,2.4,111
2014-06-25 16:45:03,35.3,5.7,29.7,32.6,2.4,111
2014-06-25 16:50:03,35.3,6.8,28.5,32.6,2.4,112
2014-06-25 16:55:03,35.7,8.8,26.9,32.6,2.5,111
2014-06-25 17:00:03,36.2,8.1,28.1,32.6,2.7,111
2014-06-25 17:05:03,36.7,7.7,29.0,32.6,2.8,112
2014-06-25 17:10:03,36.7,7.1,29.6,32.6,2.8,111
2014-06-25 17:15:03,36.5,10.0,26.5,32.6,2.8,112
2014-06-25 17:20:03,37.4,9.2,28.2,32.6,2.4,111
2014-06-25 17:25:03,38.5,8.8,29.7,32.6,2.4,111
2014-06-25 17:30:03,38.5,8.2,30.3,32.6,2.4,112
2014-06-25 17:35:03,37.8,4.9,32.9,32.6,2.4,111
2014-06-25 17:40:03,36.7,6.0,30.6,32.6,2.4,112
2014-06-25 17:45:03,36.4,6.3,30.1,32.6,2.6,111
2014-06-25 17:50:03,36.2,7.4,28.8,32.6,2.8,112
2014-06-25 17:55:03,36.5,8.1,28.4,32.6,2.8,111
2014-06-25 18:00:03,37.2,7.2,30.0,32.6,2.5,111
2014-06-25 18:05:03,36.5,2.4,34.1,32.5,2.6,111
2014-06-25 18:10:03,34.8,2.6,32.2,32.6,2.4,112
2014-06-25 18:15:03,34.0,3.2,30.8,32.6,2.3,111
2014-06-25 18:20:03,33.4,2.8,30.6,32.5,2.0,111
2014-06-25 18:25:03,33.2,4.3,28.8,32.6,1.8,112
2014-06-25 18:30:03,33.0,3.8,29.2,32.6,1.8,111
2014-06-25 18:35:03,32.8,3.6,29.2,32.6,1.7,112
2014-06-25 18:40:03,32.4,4.0,28.4,32.6,1.7,111
2014-06-25 18:45:03,32.7,4.9,27.8,32.6,1.7,112
2014-06-25 18:50:03,33.3,5.2,28.1,32.6,1.8,111
2014-06-25 18:55:03,34.0,4.9,29.1,32.6,2.0,112
2014-06-25 19:00:03,34.6,3.4,31.2,32.6,2.2,111
2014-06-25 19:05:03,34.3,1.6,32.7,32.6,2.2,111
2014-06-25 19:10:03,33.6,2.2,31.4,32.6,2.0,111
2014-06-25 19:15:03,33.4,2.5,30.9,32.6,1.9,111
2014-06-25 19:20:03,33.6,1.8,31.8,32.6,1.9,111
2014-06-25 19:25:03,33.4,2.0,31.4,32.6,1.9,111
2014-06-25 19:30:03,33.5,2.2,31.3,32.6,1.8,111
2014-06-25 19:35:03,33.4,1.0,32.4,32.5,1.9,111
2014-06-25 19:40:03,33.1,0.8,32.3,32.5,1.8,111
2014-06-25 19:45:03,32.8,0.8,32.0,32.5,1.7,112
2014-06-25 19:50:03,32.6,0.7,32.0,32.5,1.6,111
2014-06-25 19:55:03,32.5,0.6,31.9,32.5,1.6,111
2014-06-25 20:00:03,32.4,-0.1,32.5,32.5,1.5,112
2014-06-25 20:05:03,31.9,-0.4,32.3,32.5,1.3,111
2014-06-25 20:10:03,31.6,-0.3,31.9,32.5,1.2,112
2014-06-25 20:15:03,31.3,-0.6,31.9,32.4,1.2,112
2014-06-25 20:20:03,31.1,-0.8,31.9,32.4,1.3,112
2014-06-25 20:25:03,30.6,-1.4,32.1,32.4,1.5,111
2014-06-25 20:30:03,30.1,-1.3,31.5,32.3,2.0,112
2014-06-25 20:35:03,29.9,-1.1,31.0,32.3,2.3,112
2014-06-25 20:40:03,29.8,-1.2,31.0,32.3,2.3,111
2014-06-25 20:45:03,29.6,-1.7,31.3,32.2,2.3,112
2014-06-25 20:50:03,29.2,-1.7,30.9,32.1,2.3,111
2014-06-25 20:55:03,28.9,-1.8,30.7,32.0,2.3,112
2014-06-25 21:00:03,28.7,-2.2,30.9,31.9,2.3,111
2014-06-25 21:05:03,28.2,-2.6,30.8,31.6,2.3,112
2014-06-25 21:10:03,27.5,-2.8,30.3,31.4,2.3,112
2014-06-25 21:15:03,27.1,-2.7,29.9,31.1,2.3,112
2014-06-25 21:20:03,26.8,-2.7,29.5,30.7,2.3,112
2014-06-25 21:25:03,26.5,-2.8,29.3,30.1,2.3,111
2014-06-25 21:30:03,26.2,-3.1,29.3,29.2,2.3,112
2014-06-25 21:35:03,25.9,-3.1,29.1,27.9,2.3,112
2014-06-25 21:40:03,25.7,-3.0,28.7,26.0,2.4,112
2014-06-25 21:45:03,25.5,-3.1,28.6,23.3,2.3,112
2014-06-25 21:50:03,25.3,-3.2,28.5,19.8,2.3,112
2014-06-25 21:55:03,25.1,-3.2,28.4,15.7,2.3,112
2014-06-25 22:00:03,25.0,-3.4,28.4,11.7,2.2,112
2014-06-25 22:05:03,24.8,-3.6,28.4,8.2,2.3,112
2014-06-25 22:10:03,24.7,-3.3,28.0,5.5,2.3,112
2014-06-25 22:15:03,24.6,-3.4,27.9,3.5,2.3,112
2014-06-25 22:20:03,24.5,-3.7,28.2,2.2,2.3,111
2014-06-25 22:25:03,24.4,-3.7,28.1,1.4,2.3,112
2014-06-25 22:30:03,24.3,-3.8,28.1,0.9,2.3,112
2014-06-25 22:35:03,24.4,-3.8,28.1,0.5,2.3,112
2014-06-25 22:40:03,24.4,-3.8,28.1,0.3,2.3,111
2014-06-25 22:45:03,24.3,-3.9,28.2,0.2,2.3,112
2014-06-25 22:50:03,24.2,-4.0,28.2,0.1,2.3,112
2014-06-25 22:55:03,24.2,-4.0,28.2,0.1,2.3,112
2014-06-25 23:00:03,24.2,-4.1,28.2,0.0,2.3,112
2014-06-25 23:05:03,24.1,-4.0,28.1,0.0,2.3,112
2014-06-25 23:10:03,24.1,-4.1,28.1,0.0,2.3,112
2014-06-25 23:15:03,24.1,-3.7,27.9,0.0,2.3,112
2014-06-25 23:20:03,24.1,-3.7,27.8,0.0,2.3,112
2014-06-25 23:25:03,24.1,-3.5,27.6,0.0,2.3,112
2014-06-25 23:30:03,24.1,-3.2,27.2,0.0,2.3,111
2014-06-25 23:35:03,24.1,-2.6,26.7,0.0,2.3,112
2014-06-25 23:40:03,24.1,-2.3,26.4,0.0,2.3,111
2014-06-25 23:45:03,24.1,-1.1,25.2,0.0,2.3,112
2014-06-25 23:50:03,24.1,-0.3,24.5,0.0,2.3,112
2014-06-25 23:55:03,24.3,0.1,24.1,0.0,2.3,112
